| time (UTC) | temp C | wind direction | speed KPH | gust KPH | rain 1hr cm | rain 24hr cm | rain mn cm | humidity % | barometer mb |
| 20260505194804 | 26 | 239 | 8.0 | 14.5 | 0.00 | 0.00 | 0.00 | 25 | 1014.9 |
| 20260505194605 | 26 | 253 | 8.0 | 12.9 | 0.00 | 0.00 | 0.00 | 30 | 1014.9 |
| 20260505194404 | 25 | 259 | 8.0 | 12.9 | 0.00 | 0.00 | 0.00 | 30 | 1014.9 |
| 20260505194204 | 25 | 260 | 9.7 | 12.9 | 0.00 | 0.00 | 0.00 | 30 | 1015.2 |
| 20260505193804 | 25 | 192 | 8.0 | 12.9 | 0.00 | 0.00 | 0.00 | 30 | 1015.3 |
| 20260505193604 | 25 | 173 | 8.0 | 12.9 | 0.00 | 0.00 | 0.00 | 30 | 1015.2 |
| 20260505193405 | 25 | 167 | 8.0 | 19.3 | 0.00 | 0.00 | 0.00 | 29 | 1015.3 |
| 20260505193004 | 25 | 217 | 9.7 | 19.3 | 0.00 | 0.00 | 0.00 | 27 | 1015.1 |
| 20260505192805 | 25 | 229 | 11.3 | 19.3 | 0.00 | 0.00 | 0.00 | 26 | 1015.2 |
| 20260505192604 | 25 | 255 | 11.3 | 19.3 | 0.00 | 0.00 | 0.00 | 25 | 1015.4 |
| 20260505192404 | 25 | 247 | 11.3 | 16.1 | 0.00 | 0.00 | 0.00 | 25 | 1015.2 |
| 20260505192205 | 25 | 233 | 11.3 | 14.5 | 0.00 | 0.00 | 0.00 | 25 | 1015.3 |
| 20260505192004 | 25 | 221 | 9.7 | 14.5 | 0.00 | 0.00 | 0.00 | 24 | 1015.3 |
| 20260505191804 | 25 | 227 | 9.7 | 14.5 | 0.00 | 0.00 | 0.00 | 26 | 1015.2 |
| 20260505191404 | 25 | 220 | 8.0 | 12.9 | 0.00 | 0.00 | 0.00 | 29 | 1015.4 |
| 20260505191205 | 25 | 209 | 8.0 | 12.9 | 0.00 | 0.00 | 0.00 | 30 | 1015.4 |
| 20260505191004 | 24 | 209 | 8.0 | 12.9 | 0.00 | 0.00 | 0.00 | 28 | 1015.4 |
| 20260505190805 | 24 | 191 | 8.0 | 12.9 | 0.00 | 0.00 | 0.00 | 28 | 1015.4 |
| 20260505190604 | 23 | 159 | 9.7 | 16.1 | 0.00 | 0.00 | 0.00 | 27 | 1015.6 |
| 20260505190404 | 23 | 154 | 8.0 | 16.1 | 0.00 | 0.00 | 0.00 | 28 | 1015.6 |
| 20260505190204 | 24 | 179 | 9.7 | 16.1 | 0.00 | 0.00 | 0.00 | 26 | 1015.7 |
| 20260505185805 | 25 | 272 | 11.3 | 16.1 | 0.00 | 0.00 | 0.00 | 26 | 1015.7 |
| 20260505185604 | 24 | 272 | 9.7 | 16.1 | 0.00 | 0.00 | 0.00 | 26 | 1015.7 |
| 20260505185404 | 25 | 266 | 9.7 | 16.1 | 0.00 | 0.00 | 0.00 | 26 | 1015.8 |
| 20260505185204 | 25 | 268 | 8.0 | 16.1 | 0.00 | 0.00 | 0.00 | 26 | 1015.7 |
| 20260505185004 | 25 | 240 | 8.0 | 16.1 | 0.00 | 0.00 | 0.00 | 27 | 1015.7 |
| 20260505184805 | 25 | 178 | 8.0 | 12.9 | 0.00 | 0.00 | 0.00 | 25 | 1015.7 |
| 20260505184604 | 25 | 230 | 9.7 | 14.5 | 0.00 | 0.00 | 0.00 | 26 | 1015.7 |
| 20260505184405 | 25 | 307 | 9.7 | 14.5 | 0.00 | 0.00 | 0.00 | 27 | 1015.9 |
| 20260505184004 | 25 | 300 | 9.7 | 16.1 | 0.00 | 0.00 | 0.00 | 26 | 1015.8 |
| 20260505183805 | 25 | 301 | 9.7 | 16.1 | 0.00 | 0.00 | 0.00 | 26 | 1016.0 |
| 20260505183604 | 25 | 304 | 9.7 | 16.1 | 0.00 | 0.00 | 0.00 | 26 | 1015.7 |
| 20260505183404 | 25 | 273 | 9.7 | 16.1 | 0.00 | 0.00 | 0.00 | 28 | 1015.6 |
| 20260505183004 | 25 | 282 | 8.0 | 16.1 | 0.00 | 0.00 | 0.00 | 28 | 1015.9 |
| 20260505182805 | 25 | 255 | 8.0 | 16.1 | 0.00 | 0.00 | 0.00 | 26 | 1015.7 |
| 20260505182604 | 25 | 202 | 8.0 | 16.1 | 0.00 | 0.00 | 0.00 | 26 | 1015.9 |
| 20260505182405 | 25 | 173 | 8.0 | 16.1 | 0.00 | 0.00 | 0.00 | 26 | 1015.9 |
| 20260505182204 | 25 | 109 | 8.0 | 16.1 | 0.00 | 0.00 | 0.00 | 26 | 1016.1 |
| 20260505182005 | 25 | 119 | 9.7 | 16.1 | 0.00 | 0.00 | 0.00 | 26 | 1015.9 |
| 20260505181804 | 25 | 268 | 11.3 | 19.3 | 0.00 | 0.00 | 0.00 | 27 | 1015.9 |
| 20260505181604 | 25 | 255 | 11.3 | 19.3 | 0.00 | 0.00 | 0.00 | 28 | 1016.2 |
| 20260505181404 | 25 | 288 | 12.9 | 22.5 | 0.00 | 0.00 | 0.00 | 27 | 1016.0 |
| 20260505181204 | 25 | 288 | 12.9 | 22.5 | 0.00 | 0.00 | 0.00 | 26 | 1016.0 |
| 20260505180804 | 25 | 295 | 11.3 | 22.5 | 0.00 | 0.00 | 0.00 | 26 | 1016.1 |
| 20260505180404 | 25 | 262 | 8.0 | 22.5 | 0.00 | 0.00 | 0.00 | 26 | 1016.1 |
| 20260505180004 | 25 | 228 | 8.0 | 16.1 | 0.00 | 0.00 | 0.00 | 25 | 1016.1 |
| 20260505175804 | 25 | 223 | 8.0 | 16.1 | 0.00 | 0.00 | 0.00 | 25 | 1016.3 |
| 20260505175604 | 25 | 227 | 9.7 | 16.1 | 0.00 | 0.00 | 0.00 | 24 | 1016.4 |
| 20260505175404 | 25 | 238 | 11.3 | 19.3 | 0.00 | 0.00 | 0.00 | 25 | 1016.5 |
| 20260505175205 | 25 | 250 | 11.3 | 19.3 | 0.00 | 0.00 | 0.00 | 25 | 1016.4 |
| 20260505175004 | 24 | 260 | 12.9 | 19.3 | 0.00 | 0.00 | 0.00 | 25 | 1016.3 |
| 20260505174805 | 24 | 264 | 12.9 | 19.3 | 0.00 | 0.00 | 0.00 | 24 | 1016.4 |
| 20260505174604 | 23 | 273 | 12.9 | 19.3 | 0.00 | 0.00 | 0.00 | 25 | 1016.5 |
| 20260505174405 | 23 | 280 | 12.9 | 19.3 | 0.00 | 0.00 | 0.00 | 25 | 1016.4 |
| 20260505174204 | 23 | 279 | 11.3 | 17.7 | 0.00 | 0.00 | 0.00 | 25 | 1016.3 |
| 20260505174005 | 23 | 278 | 11.3 | 17.7 | 0.00 | 0.00 | 0.00 | 26 | 1016.6 |
| 20260505173804 | 23 | 278 | 12.9 | 22.5 | 0.00 | 0.00 | 0.00 | 25 | 1016.5 |
| 20260505173604 | 23 | 277 | 12.9 | 22.5 | 0.00 | 0.00 | 0.00 | 26 | 1016.6 |
| 20260505173404 | 22 | 281 | 14.5 | 22.5 | 0.00 | 0.00 | 0.00 | 27 | 1016.5 |
| 20260505172804 | 22 | 282 | 12.9 | 22.5 | 0.00 | 0.00 | 0.00 | 26 | 1016.7 |
| 20260505172404 | 22 | 284 | 12.9 | 19.3 | 0.00 | 0.00 | 0.00 | 26 | 1016.8 |
| 20260505171805 | 22 | 267 | 11.3 | 17.7 | 0.00 | 0.00 | 0.00 | 26 | 1016.9 |
| 20260505171604 | 22 | 272 | 12.9 | 17.7 | 0.00 | 0.00 | 0.00 | 25 | 1016.9 |
| 20260505171404 | 22 | 275 | 11.3 | 17.7 | 0.00 | 0.00 | 0.00 | 28 | 1016.8 |
| 20260505171204 | 22 | 286 | 11.3 | 17.7 | 0.00 | 0.00 | 0.00 | 26 | 1016.7 |
| 20260505170804 | 22 | 283 | 11.3 | 17.7 | 0.00 | 0.00 | 0.00 | 27 | 1016.8 |
| 20260505170604 | 22 | 253 | 11.3 | 16.1 | 0.00 | 0.00 | 0.00 | 30 | 1017.0 |
| 20260505170404 | 22 | 242 | 9.7 | 16.1 | 0.00 | 0.00 | 0.00 | 30 | 1016.8 |
| 20260505170205 | 22 | 238 | 9.7 | 16.1 | 0.00 | 0.00 | 0.00 | 30 | 1016.7 |
| 20260505170004 | 23 | 231 | 9.7 | 14.5 | 0.00 | 0.00 | 0.00 | 30 | 1016.6 |
| 20260505165805 | 23 | 223 | 9.7 | 14.5 | 0.00 | 0.00 | 0.00 | 30 | 1016.7 |
| 20260505165604 | 23 | 230 | 9.7 | 12.9 | 0.00 | 0.00 | 0.00 | 31 | 1016.7 |
| 20260505165204 | 23 | 250 | 9.7 | 12.9 | 0.00 | 0.00 | 0.00 | 31 | 1016.6 |
| 20260505165004 | 23 | 259 | 9.7 | 17.7 | 0.00 | 0.00 | 0.00 | 32 | 1016.6 |
| 20260505164805 | 22 | 268 | 11.3 | 17.7 | 0.00 | 0.00 | 0.00 | 32 | 1016.7 |
| 20260505164604 | 22 | 276 | 12.9 | 25.7 | 0.00 | 0.00 | 0.00 | 33 | 1016.7 |
| 20260505163804 | 21 | 308 | 16.1 | 25.7 | 0.00 | 0.00 | 0.00 | 32 | 1017.0 |
| 20260505163604 | 21 | 314 | 16.1 | 24.1 | 0.00 | 0.00 | 0.00 | 32 | 1017.0 |
| 20260505163205 | 22 | 301 | 14.5 | 24.1 | 0.00 | 0.00 | 0.00 | 31 | 1017.0 |
| 20260505163004 | 22 | 285 | 12.9 | 24.1 | 0.00 | 0.00 | 0.00 | 31 | 1016.9 |
| 20260505162605 | 22 | 264 | 9.7 | 22.5 | 0.00 | 0.00 | 0.00 | 31 | 1017.0 |
| 20260505162404 | 22 | 262 | 9.7 | 22.5 | 0.00 | 0.00 | 0.00 | 31 | 1017.0 |
| 20260505162204 | 22 | 286 | 9.7 | 22.5 | 0.00 | 0.00 | 0.00 | 31 | 1017.1 |
| 20260505161805 | 22 | 281 | 12.9 | 19.3 | 0.00 | 0.00 | 0.00 | 31 | 1017.1 |
| 20260505161604 | 22 | 269 | 11.3 | 19.3 | 0.00 | 0.00 | 0.00 | 32 | 1017.0 |
| 20260505161405 | 22 | 270 | 11.3 | 19.3 | 0.00 | 0.00 | 0.00 | 31 | 1017.2 |
| 20260505161204 | 22 | 260 | 9.7 | 19.3 | 0.00 | 0.00 | 0.00 | 31 | 1017.0 |
| 20260505160804 | 22 | 245 | 9.7 | 16.1 | 0.00 | 0.00 | 0.00 | 33 | 1016.9 |
| 20260505160404 | 21 | 237 | 11.3 | 16.1 | 0.00 | 0.00 | 0.00 | 33 | 1017.2 |
| 20260505160204 | 21 | 225 | 11.3 | 17.7 | 0.00 | 0.00 | 0.00 | 33 | 1017.3 |
| 20260505153204 | 20 | 169 | 9.7 | 16.1 | 0.00 | 0.00 | 0.00 | 41 | 1017.1 |
| 20260505153004 | 20 | 177 | 9.7 | 16.1 | 0.00 | 0.00 | 0.00 | 42 | 1017.0 |
| 20260505152804 | 20 | 177 | 9.7 | 16.1 | 0.00 | 0.00 | 0.00 | 42 | 1017.1 |
| 20260505152605 | 20 | 205 | 9.7 | 17.7 | 0.00 | 0.00 | 0.00 | 41 | 1017.2 |
| 20260505152404 | 20 | 222 | 11.3 | 17.7 | 0.00 | 0.00 | 0.00 | 41 | 1017.2 |
| 20260505152204 | 20 | 232 | 11.3 | 17.7 | 0.00 | 0.00 | 0.00 | 41 | 1017.2 |
| 20260505152005 | 21 | 238 | 11.3 | 17.7 | 0.00 | 0.00 | 0.00 | 41 | 1017.2 |
| 20260505151805 | 21 | 239 | 11.3 | 17.7 | 0.00 | 0.00 | 0.00 | 41 | 1017.3 |
| 20260505151404 | 21 | 236 | 11.3 | 22.5 | 0.00 | 0.00 | 0.00 | 41 | 1017.3 |
| 20260505151205 | 20 | 242 | 11.3 | 22.5 | 0.00 | 0.00 | 0.00 | 42 | 1017.1 |
| 20260505150804 | 20 | 269 | 11.3 | 22.5 | 0.00 | 0.00 | 0.00 | 41 | 1017.3 |
| 20260505150604 | 20 | 256 | 9.7 | 19.3 | 0.00 | 0.00 | 0.00 | 41 | 1017.3 |
| 20260505150404 | 20 | 256 | 8.0 | 16.1 | 0.00 | 0.00 | 0.00 | 42 | 1017.4 |
| 20260505150205 | 20 | 247 | 6.4 | 12.9 | 0.00 | 0.00 | 0.00 | 43 | 1017.5 |
| 20260505140404 | 16 | 86 | 3.2 | 8.0 | 0.00 | 0.00 | 0.00 | 61 | 1017.2 |
| 20260505140204 | 16 | 77 | 3.2 | 4.8 | 0.00 | 0.00 | 0.00 | 60 | 1017.2 |
| 20260505130204 | 13 | 46 | 1.6 | 3.2 | 0.00 | 0.00 | 0.00 | 68 | 1016.9 |
| 20260505125004 | 12 | 298 | 3.2 | 4.8 | 0.00 | 0.00 | 0.00 | 68 | 1016.7 |
| 20260505124805 | 12 | 319 | 3.2 | 4.8 | 0.00 | 0.00 | 0.00 | 69 | 1016.7 |
| 20260505124004 | 12 | 45 | 0.0 | 3.2 | 0.00 | 0.00 | 0.00 | 70 | 1016.5 |
| 20260505123804 | 12 | 0 | 0.0 | 0.0 | 0.00 | 0.00 | 0.00 | 70 | 1016.8 |
| 20260505123605 | 12 | 0 | 0.0 | 0.0 | 0.00 | 0.00 | 0.00 | 70 | 1016.7 |
| 20260505123404 | 12 | 0 | 0.0 | 0.0 | 0.00 | 0.00 | 0.00 | 70 | 1016.7 |
| 20260505123004 | 12 | 0 | 0.0 | 0.0 | 0.00 | 0.00 | 0.00 | 70 | 1016.6 |
| 20260505122804 | 12 | 314 | 0.0 | 3.2 | 0.00 | 0.00 | 0.00 | 70 | 1016.6 |
| 20260505122604 | 11 | 314 | 0.0 | 3.2 | 0.00 | 0.00 | 0.00 | 70 | 1016.7 |
| 20260505122405 | 11 | 314 | 0.0 | 3.2 | 0.00 | 0.00 | 0.00 | 70 | 1016.6 |
| 20260505122204 | 11 | 314 | 0.0 | 3.2 | 0.00 | 0.00 | 0.00 | 70 | 1016.7 |
| 20260505122005 | 11 | 314 | 0.0 | 3.2 | 0.00 | 0.00 | 0.00 | 70 | 1016.6 |
| 20260505121604 | 11 | 0 | 0.0 | 0.0 | 0.00 | 0.00 | 0.00 | 70 | 1016.6 |
| 20260505121404 | 11 | 0 | 0.0 | 0.0 | 0.00 | 0.00 | 0.00 | 72 | 1016.4 |
| 20260505121204 | 11 | 0 | 0.0 | 0.0 | 0.00 | 0.00 | 0.00 | 72 | 1016.6 |
| 20260505121005 | 11 | 314 | 0.0 | 1.6 | 0.00 | 0.00 | 0.00 | 72 | 1016.6 |
| 20260505120804 | 11 | 314 | 0.0 | 3.2 | 0.00 | 0.00 | 0.00 | 72 | 1016.6 |
| 20260505120604 | 11 | 294 | 1.6 | 4.8 | 0.00 | 0.00 | 0.00 | 72 | 1016.6 |
| 20260505120405 | 10 | 291 | 1.6 | 4.8 | 0.00 | 0.00 | 0.00 | 72 | 1016.5 |
| 20260505120005 | 10 | 305 | 1.6 | 4.8 | 0.00 | 0.00 | 0.00 | 73 | 1016.5 |
| 20260505115604 | 10 | 328 | 1.6 | 4.8 | 0.00 | 0.00 | 0.00 | 73 | 1016.4 |
| 20260505115405 | 10 | 334 | 1.6 | 3.2 | 0.00 | 0.00 | 0.00 | 74 | 1016.3 |
| 20260505115204 | 10 | 330 | 1.6 | 3.2 | 0.00 | 0.00 | 0.00 | 74 | 1016.4 |
| 20260505115005 | 10 | 321 | 1.6 | 3.2 | 0.00 | 0.00 | 0.00 | 74 | 1016.3 |
| 20260505114804 | 9 | 314 | 1.6 | 3.2 | 0.00 | 0.00 | 0.00 | 75 | 1016.3 |
| 20260505114604 | 9 | 315 | 1.6 | 3.2 | 0.00 | 0.00 | 0.00 | 75 | 1016.4 |
| 20260505114404 | 9 | 315 | 1.6 | 3.2 | 0.00 | 0.00 | 0.00 | 75 | 1016.4 |
| 20260505114205 | 9 | 314 | 1.6 | 3.2 | 0.00 | 0.00 | 0.00 | 75 | 1016.1 |
| 20260505113804 | 9 | 314 | 0.0 | 3.2 | 0.00 | 0.00 | 0.00 | 75 | 1016.3 |
| 20260505113604 | 9 | 314 | 0.0 | 3.2 | 0.00 | 0.00 | 0.00 | 75 | 1016.3 |
| 20260505113404 | 9 | 294 | 1.6 | 4.8 | 0.00 | 0.00 | 0.00 | 75 | 1016.1 |
| 20260505113005 | 8 | 291 | 1.6 | 4.8 | 0.00 | 0.00 | 0.00 | 75 | 1016.2 |
| 20260505112805 | 8 | 290 | 1.6 | 4.8 | 0.00 | 0.00 | 0.00 | 75 | 1016.1 |
| 20260505112405 | 8 | 275 | 0.0 | 4.8 | 0.00 | 0.00 | 0.00 | 75 | 1016.2 |
| 20260505112204 | 8 | 314 | 0.0 | 3.2 | 0.00 | 0.00 | 0.00 | 74 | 1016.1 |
| 20260505112005 | 8 | 314 | 1.6 | 3.2 | 0.00 | 0.00 | 0.00 | 75 | 1016.0 |
| 20260505111804 | 8 | 314 | 1.6 | 3.2 | 0.00 | 0.00 | 0.00 | 75 | 1016.0 |
| 20260505111604 | 8 | 314 | 1.6 | 3.2 | 0.00 | 0.00 | 0.00 | 75 | 1016.2 |
| 20260505111404 | 8 | 315 | 3.2 | 3.2 | 0.00 | 0.00 | 0.00 | 75 | 1015.9 |
| 20260505111204 | 8 | 315 | 1.6 | 3.2 | 0.00 | 0.00 | 0.00 | 75 | 1015.9 |
| 20260505111004 | 8 | 314 | 1.6 | 3.2 | 0.00 | 0.00 | 0.00 | 75 | 1015.9 |
| 20260505110404 | 8 | 314 | 1.6 | 4.8 | 0.00 | 0.00 | 0.00 | 75 | 1015.9 |
| 20260505110204 | 8 | 314 | 3.2 | 4.8 | 0.00 | 0.00 | 0.00 | 75 | 1015.9 |
| 20260505102204 | 8 | 0 | 0.0 | 0.0 | 0.00 | 0.00 | 0.00 | 75 | 1015.9 |
| 20260505102004 | 8 | 314 | 0.0 | 3.2 | 0.00 | 0.00 | 0.00 | 75 | 1015.8 |
| 20260505101804 | 8 | 314 | 0.0 | 3.2 | 0.00 | 0.00 | 0.00 | 74 | 1015.9 |
| 20260505101604 | 8 | 314 | 0.0 | 3.2 | 0.00 | 0.00 | 0.00 | 74 | 1015.9 |
| 20260505101405 | 8 | 314 | 1.6 | 3.2 | 0.00 | 0.00 | 0.00 | 74 | 1015.8 |
| 20260505101204 | 8 | 314 | 1.6 | 3.2 | 0.00 | 0.00 | 0.00 | 74 | 1015.9 |
| 20260505101005 | 8 | 314 | 1.6 | 3.2 | 0.00 | 0.00 | 0.00 | 74 | 1016.0 |
| 20260505100605 | 8 | 314 | 0.0 | 3.2 | 0.00 | 0.00 | 0.00 | 74 | 1015.9 |
| 20260505100404 | 8 | 314 | 0.0 | 3.2 | 0.00 | 0.00 | 0.00 | 74 | 1015.8 |
| 20260505100204 | 8 | 314 | 0.0 | 1.6 | 0.00 | 0.00 | 0.00 | 74 | 1016.0 |
| 20260505100004 | 8 | 288 | 0.0 | 3.2 | 0.00 | 0.00 | 0.00 | 74 | 1015.8 |
| 20260505095804 | 8 | 290 | 1.6 | 3.2 | 0.00 | 0.00 | 0.00 | 74 | 1016.0 |
| 20260505095604 | 8 | 300 | 1.6 | 3.2 | 0.00 | 0.00 | 0.00 | 74 | 1015.8 |
| 20260505095404 | 8 | 304 | 1.6 | 3.2 | 0.00 | 0.00 | 0.00 | 74 | 1015.9 |
| 20260505095204 | 8 | 305 | 1.6 | 3.2 | 0.00 | 0.00 | 0.00 | 74 | 1015.8 |
| 20260505095004 | 8 | 309 | 1.6 | 3.2 | 0.00 | 0.00 | 0.00 | 74 | 1015.7 |
| 20260505094805 | 8 | 314 | 1.6 | 3.2 | 0.00 | 0.00 | 0.00 | 74 | 1015.9 |
| 20260505094405 | 9 | 314 | 0.0 | 1.6 | 0.00 | 0.00 | 0.00 | 73 | 1015.9 |
| 20260505094204 | 9 | 314 | 0.0 | 1.6 | 0.00 | 0.00 | 0.00 | 73 | 1015.7 |
| 20260505094005 | 9 | 314 | 0.0 | 3.2 | 0.00 | 0.00 | 0.00 | 73 | 1015.9 |
| 20260505093804 | 9 | 314 | 1.6 | 3.2 | 0.00 | 0.00 | 0.00 | 73 | 1015.8 |
| 20260505093607 | 9 | 314 | 1.6 | 3.2 | 0.00 | 0.00 | 0.00 | 73 | 1015.8 |
| 20260505093404 | 9 | 314 | 1.6 | 3.2 | 0.00 | 0.00 | 0.00 | 73 | 1015.9 |
| 20260505093205 | 9 | 314 | 3.2 | 3.2 | 0.00 | 0.00 | 0.00 | 73 | 1015.9 |
| 20260505093004 | 9 | 314 | 3.2 | 3.2 | 0.00 | 0.00 | 0.00 | 73 | 1015.7 |
| 20260505092805 | 9 | 315 | 3.2 | 3.2 | 0.00 | 0.00 | 0.00 | 73 | 1015.8 |
| 20260505092604 | 9 | 314 | 3.2 | 3.2 | 0.00 | 0.00 | 0.00 | 73 | 1015.8 |
| 20260505092404 | 9 | 315 | 3.2 | 3.2 | 0.00 | 0.00 | 0.00 | 73 | 1015.8 |
| 20260505092204 | 9 | 315 | 3.2 | 3.2 | 0.00 | 0.00 | 0.00 | 73 | 1015.9 |
| 20260505091804 | 9 | 314 | 3.2 | 4.8 | 0.00 | 0.00 | 0.00 | 73 | 1015.9 |
| 20260505091604 | 9 | 314 | 3.2 | 4.8 | 0.00 | 0.00 | 0.00 | 73 | 1015.9 |
| 20260505091404 | 9 | 314 | 3.2 | 4.8 | 0.00 | 0.00 | 0.00 | 73 | 1015.7 |
| 20260505091204 | 9 | 314 | 1.6 | 4.8 | 0.00 | 0.00 | 0.00 | 73 | 1016.0 |
| 20260505091005 | 9 | 314 | 1.6 | 4.8 | 0.00 | 0.00 | 0.00 | 73 | 1015.7 |
| 20260505090804 | 9 | 314 | 1.6 | 4.8 | 0.00 | 0.00 | 0.00 | 73 | 1015.9 |
| 20260505090605 | 9 | 0 | 0.0 | 0.0 | 0.00 | 0.00 | 0.00 | 73 | 1016.0 |
| 20260505090205 | 9 | 0 | 0.0 | 0.0 | 0.00 | 0.00 | 0.00 | 73 | 1016.0 |
| 20260505090004 | 9 | 0 | 0.0 | 0.0 | 0.00 | 0.00 | 0.00 | 73 | 1015.9 |
| 20260505085805 | 9 | 0 | 0.0 | 0.0 | 0.00 | 0.00 | 0.00 | 73 | 1016.0 |
| 20260505085604 | 9 | 0 | 0.0 | 0.0 | 0.00 | 0.00 | 0.00 | 73 | 1016.1 |
| 20260505085204 | 9 | 0 | 0.0 | 0.0 | 0.00 | 0.00 | 0.00 | 73 | 1015.8 |
| 20260505085005 | 9 | 0 | 0.0 | 0.0 | 0.00 | 0.00 | 0.00 | 73 | 1016.0 |
| 20260505084804 | 9 | 0 | 0.0 | 0.0 | 0.00 | 0.00 | 0.00 | 73 | 1015.8 |
| 20260505084404 | 9 | 0 | 0.0 | 0.0 | 0.00 | 0.00 | 0.00 | 73 | 1015.7 |
| 20260505084204 | 9 | 0 | 0.0 | 0.0 | 0.00 | 0.00 | 0.00 | 73 | 1015.8 |
| 20260505084005 | 9 | 0 | 0.0 | 0.0 | 0.00 | 0.00 | 0.00 | 73 | 1015.8 |
| 20260505083804 | 9 | 0 | 0.0 | 0.0 | 0.00 | 0.00 | 0.00 | 73 | 1015.8 |
| 20260505083205 | 9 | 315 | 1.6 | 3.2 | 0.00 | 0.00 | 0.00 | 73 | 1015.8 |
| 20260505082804 | 9 | 314 | 3.2 | 3.2 | 0.00 | 0.00 | 0.00 | 73 | 1015.9 |
| 20260505082004 | 9 | 314 | 3.2 | 4.8 | 0.00 | 0.00 | 0.00 | 72 | 1015.8 |
| 20260505081804 | 9 | 314 | 3.2 | 4.8 | 0.00 | 0.00 | 0.00 | 72 | 1015.8 |
| 20260505081604 | 9 | 314 | 3.2 | 4.8 | 0.00 | 0.00 | 0.00 | 72 | 1015.7 |
| 20260505081405 | 9 | 314 | 3.2 | 4.8 | 0.00 | 0.00 | 0.00 | 73 | 1015.7 |
| 20260505081204 | 9 | 315 | 3.2 | 4.8 | 0.00 | 0.00 | 0.00 | 73 | 1016.0 |
| 20260505081005 | 9 | 315 | 3.2 | 3.2 | 0.00 | 0.00 | 0.00 | 72 | 1015.8 |
| 20260505080804 | 9 | 315 | 3.2 | 3.2 | 0.00 | 0.00 | 0.00 | 72 | 1015.7 |
| 20260505080604 | 9 | 315 | 1.6 | 3.2 | 0.00 | 0.00 | 0.00 | 72 | 1015.9 |
| 20260505080404 | 9 | 314 | 1.6 | 3.2 | 0.00 | 0.00 | 0.00 | 72 | 1015.9 |
| 20260505080204 | 9 | 314 | 1.6 | 3.2 | 0.00 | 0.00 | 0.00 | 72 | 1015.9 |
| 20260505080004 | 9 | 314 | 0.0 | 3.2 | 0.00 | 0.00 | 0.00 | 72 | 1015.9 |
| 20260505075804 | 9 | 0 | 0.0 | 0.0 | 0.00 | 0.00 | 0.00 | 72 | 1015.9 |
| 20260505075605 | 9 | 0 | 0.0 | 0.0 | 0.00 | 0.00 | 0.00 | 72 | 1015.8 |
| 20260505075404 | 9 | 0 | 0.0 | 0.0 | 0.00 | 0.00 | 0.00 | 72 | 1015.7 |
| 20260505075205 | 9 | 0 | 0.0 | 0.0 | 0.00 | 0.00 | 0.00 | 72 | 1015.7 |
| 20260505075004 | 9 | 0 | 0.0 | 0.0 | 0.00 | 0.00 | 0.00 | 72 | 1015.8 |
| 20260505074804 | 10 | 0 | 0.0 | 0.0 | 0.00 | 0.00 | 0.00 | 72 | 1015.9 |
| 20260505074405 | 10 | 0 | 0.0 | 0.0 | 0.00 | 0.00 | 0.00 | 72 | 1015.9 |
| 20260505074005 | 10 | 0 | 0.0 | 0.0 | 0.00 | 0.00 | 0.00 | 71 | 1015.9 |
| 20260505073404 | 10 | 0 | 0.0 | 0.0 | 0.00 | 0.00 | 0.00 | 71 | 1016.1 |
| 20260505073204 | 10 | 0 | 0.0 | 0.0 | 0.00 | 0.00 | 0.00 | 71 | 1016.0 |
| 20260505072804 | 10 | 314 | 0.0 | 3.2 | 0.00 | 0.00 | 0.00 | 71 | 1015.8 |
| 20260505072604 | 10 | 314 | 0.0 | 3.2 | 0.00 | 0.00 | 0.00 | 71 | 1015.8 |
| 20260505072404 | 10 | 314 | 1.6 | 3.2 | 0.00 | 0.00 | 0.00 | 71 | 1015.8 |
| 20260505072204 | 10 | 314 | 1.6 | 3.2 | 0.00 | 0.00 | 0.00 | 71 | 1015.9 |
| 20260505071604 | 10 | 313 | 1.6 | 3.2 | 0.00 | 0.00 | 0.00 | 71 | 1015.9 |
| 20260505071405 | 10 | 306 | 1.6 | 3.2 | 0.00 | 0.00 | 0.00 | 71 | 1016.0 |
| 20260505071204 | 10 | 307 | 3.2 | 4.8 | 0.00 | 0.00 | 0.00 | 71 | 1016.0 |
| 20260505070805 | 10 | 309 | 3.2 | 4.8 | 0.00 | 0.00 | 0.00 | 70 | 1015.8 |
| 20260505070604 | 10 | 317 | 3.2 | 4.8 | 0.00 | 0.00 | 0.00 | 71 | 1015.9 |
| 20260505070405 | 10 | 323 | 3.2 | 4.8 | 0.00 | 0.00 | 0.00 | 71 | 1015.6 |
| 20260505070204 | 10 | 323 | 3.2 | 4.8 | 0.00 | 0.00 | 0.00 | 70 | 1015.8 |
| 20260505070005 | 10 | 323 | 3.2 | 4.8 | 0.00 | 0.00 | 0.00 | 70 | 1015.8 |
| 20260505065804 | 10 | 322 | 3.2 | 4.8 | 0.00 | 0.00 | 0.00 | 70 | 1015.7 |
| 20260505065605 | 10 | 314 | 3.2 | 4.8 | 0.00 | 0.00 | 0.00 | 70 | 1015.7 |
| 20260505065404 | 10 | 314 | 3.2 | 4.8 | 0.00 | 0.00 | 0.00 | 70 | 1015.8 |
| 20260505065205 | 10 | 307 | 3.2 | 4.8 | 0.00 | 0.00 | 0.00 | 70 | 1015.7 |
| 20260505065004 | 10 | 300 | 4.8 | 4.8 | 0.00 | 0.00 | 0.00 | 70 | 1015.8 |
| 20260505064804 | 10 | 300 | 4.8 | 4.8 | 0.00 | 0.00 | 0.00 | 70 | 1015.8 |
| 20260505064605 | 10 | 299 | 4.8 | 4.8 | 0.00 | 0.00 | 0.00 | 70 | 1015.8 |
| 20260505064404 | 10 | 299 | 4.8 | 4.8 | 0.00 | 0.00 | 0.00 | 70 | 1015.7 |
| 20260505064204 | 10 | 307 | 4.8 | 4.8 | 0.00 | 0.00 | 0.00 | 70 | 1016.1 |
| 20260505064005 | 10 | 314 | 4.8 | 4.8 | 0.00 | 0.00 | 0.00 | 71 | 1015.8 |
| 20260505063804 | 10 | 314 | 3.2 | 4.8 | 0.00 | 0.00 | 0.00 | 71 | 1015.8 |
| 20260505063405 | 10 | 314 | 3.2 | 4.8 | 0.00 | 0.00 | 0.00 | 70 | 1015.7 |
| 20260505063204 | 10 | 315 | 3.2 | 4.8 | 0.00 | 0.00 | 0.00 | 70 | 1015.9 |
| 20260505062804 | 10 | 314 | 3.2 | 3.2 | 0.00 | 0.00 | 0.00 | 70 | 1015.7 |
| 20260505062605 | 10 | 314 | 3.2 | 3.2 | 0.00 | 0.00 | 0.00 | 70 | 1015.9 |
| 20260505062404 | 11 | 315 | 3.2 | 3.2 | 0.00 | 0.00 | 0.00 | 70 | 1015.9 |
| 20260505062204 | 11 | 315 | 3.2 | 3.2 | 0.00 | 0.00 | 0.00 | 70 | 1015.8 |
| 20260505062004 | 11 | 315 | 3.2 | 3.2 | 0.00 | 0.00 | 0.00 | 70 | 1015.6 |
| 20260505061804 | 11 | 322 | 3.2 | 3.2 | 0.00 | 0.00 | 0.00 | 70 | 1015.9 |
| 20260505061404 | 11 | 321 | 3.2 | 3.2 | 0.00 | 0.00 | 0.00 | 70 | 1015.9 |
| 20260505061204 | 11 | 321 | 3.2 | 4.8 | 0.00 | 0.00 | 0.00 | 70 | 1015.9 |
| 20260505061005 | 11 | 321 | 3.2 | 4.8 | 0.00 | 0.00 | 0.00 | 70 | 1016.0 |
| 20260505060604 | 11 | 314 | 3.2 | 4.8 | 0.00 | 0.00 | 0.00 | 70 | 1015.9 |
| 20260505060404 | 11 | 314 | 3.2 | 4.8 | 0.00 | 0.00 | 0.00 | 70 | 1015.9 |
| 20260505060204 | 11 | 315 | 3.2 | 4.8 | 0.00 | 0.00 | 0.00 | 70 | 1015.8 |
| 20260505060004 | 11 | 315 | 3.2 | 3.2 | 0.00 | 0.00 | 0.00 | 70 | 1015.8 |
| 20260505055404 | 11 | 322 | 3.2 | 3.2 | 0.00 | 0.00 | 0.00 | 70 | 1015.9 |
| 20260505055004 | 11 | 321 | 3.2 | 4.8 | 0.00 | 0.00 | 0.00 | 70 | 1016.0 |
| 20260505054804 | 11 | 316 | 3.2 | 4.8 | 0.00 | 0.00 | 0.00 | 70 | 1016.0 |
| 20260505054604 | 11 | 312 | 3.2 | 4.8 | 0.00 | 0.00 | 0.00 | 70 | 1015.9 |
| 20260505054404 | 11 | 307 | 3.2 | 4.8 | 0.00 | 0.00 | 0.00 | 70 | 1016.0 |
| 20260505054204 | 11 | 307 | 4.8 | 8.0 | 0.00 | 0.00 | 0.00 | 70 | 1015.9 |
| 20260505054004 | 11 | 301 | 4.8 | 8.0 | 0.00 | 0.00 | 0.00 | 66 | 1015.9 |
| 20260505053804 | 11 | 302 | 4.8 | 8.0 | 0.00 | 0.00 | 0.00 | 66 | 1015.9 |
| 20260505053604 | 11 | 306 | 4.8 | 8.0 | 0.00 | 0.00 | 0.00 | 66 | 1016.0 |
| 20260505053404 | 11 | 313 | 4.8 | 8.0 | 0.00 | 0.00 | 0.00 | 67 | 1015.9 |
| 20260505053205 | 11 | 313 | 4.8 | 8.0 | 0.00 | 0.00 | 0.00 | 67 | 1016.0 |
| 20260505053004 | 11 | 318 | 4.8 | 8.0 | 0.00 | 0.00 | 0.00 | 67 | 1015.8 |
| 20260505052604 | 11 | 310 | 4.8 | 8.0 | 0.00 | 0.00 | 0.00 | 68 | 1016.0 |
| 20260505052404 | 11 | 308 | 4.8 | 8.0 | 0.00 | 0.00 | 0.00 | 67 | 1015.9 |
| 20260505051604 | 11 | 314 | 4.8 | 8.0 | 0.00 | 0.00 | 0.00 | 67 | 1016.1 |
| 20260505051404 | 11 | 315 | 4.8 | 8.0 | 0.00 | 0.00 | 0.00 | 66 | 1016.0 |
| 20260505051204 | 11 | 314 | 4.8 | 8.0 | 0.00 | 0.00 | 0.00 | 66 | 1016.2 |
| 20260505050804 | 11 | 315 | 4.8 | 8.0 | 0.00 | 0.00 | 0.00 | 66 | 1016.0 |
| 20260505050604 | 11 | 314 | 4.8 | 8.0 | 0.00 | 0.00 | 0.00 | 66 | 1016.0 |
| 20260505050204 | 11 | 314 | 4.8 | 8.0 | 0.00 | 0.00 | 0.00 | 66 | 1016.0 |
| 20260505041404 | 12 | 314 | 3.2 | 4.8 | 0.00 | 0.00 | 0.00 | 65 | 1015.9 |
| 20260505041204 | 12 | 314 | 3.2 | 4.8 | 0.00 | 0.00 | 0.00 | 65 | 1016.0 |
| 20260505041005 | 12 | 314 | 4.8 | 4.8 | 0.00 | 0.00 | 0.00 | 65 | 1016.0 |
| 20260505040604 | 12 | 314 | 4.8 | 4.8 | 0.00 | 0.00 | 0.00 | 65 | 1015.9 |
| 20260505040404 | 12 | 314 | 4.8 | 4.8 | 0.00 | 0.00 | 0.00 | 65 | 1016.0 |
| 20260505040204 | 12 | 314 | 4.8 | 4.8 | 0.00 | 0.00 | 0.00 | 65 | 1016.0 |
| 20260505040005 | 12 | 314 | 4.8 | 4.8 | 0.00 | 0.00 | 0.00 | 65 | 1015.9 |
| 20260505035804 | 12 | 314 | 4.8 | 4.8 | 0.00 | 0.00 | 0.00 | 65 | 1016.0 |
| 20260505035604 | 12 | 314 | 4.8 | 4.8 | 0.00 | 0.00 | 0.00 | 65 | 1016.0 |
| 20260505035404 | 12 | 314 | 4.8 | 4.8 | 0.00 | 0.00 | 0.00 | 65 | 1015.8 |
| 20260505035204 | 12 | 314 | 4.8 | 4.8 | 0.00 | 0.00 | 0.00 | 65 | 1015.9 |
| 20260505035004 | 12 | 314 | 4.8 | 4.8 | 0.00 | 0.00 | 0.00 | 65 | 1016.0 |
| 20260505034804 | 12 | 314 | 4.8 | 4.8 | 0.00 | 0.00 | 0.00 | 65 | 1015.9 |
| 20260505034604 | 12 | 314 | 4.8 | 4.8 | 0.00 | 0.00 | 0.00 | 65 | 1016.0 |
| 20260505034404 | 12 | 314 | 4.8 | 4.8 | 0.00 | 0.00 | 0.00 | 65 | 1015.9 |
| 20260505034204 | 12 | 314 | 4.8 | 4.8 | 0.00 | 0.00 | 0.00 | 64 | 1016.1 |
| 20260505034004 | 12 | 314 | 4.8 | 4.8 | 0.00 | 0.00 | 0.00 | 64 | 1016.1 |
| 20260505033804 | 12 | 314 | 4.8 | 8.0 | 0.00 | 0.00 | 0.00 | 64 | 1016.0 |
| 20260505033604 | 12 | 314 | 4.8 | 8.0 | 0.00 | 0.00 | 0.00 | 64 | 1015.9 |
| 20260505033405 | 12 | 314 | 4.8 | 8.0 | 0.00 | 0.00 | 0.00 | 64 | 1016.1 |
| 20260505033005 | 12 | 320 | 4.8 | 8.0 | 0.00 | 0.00 | 0.00 | 64 | 1016.0 |
| 20260505032804 | 12 | 320 | 3.2 | 4.8 | 0.00 | 0.00 | 0.00 | 64 | 1015.9 |
| 20260505032604 | 12 | 320 | 3.2 | 4.8 | 0.00 | 0.00 | 0.00 | 64 | 1016.1 |
| 20260505032204 | 12 | 321 | 3.2 | 4.8 | 0.00 | 0.00 | 0.00 | 64 | 1016.0 |
| 20260505031604 | 12 | 314 | 3.2 | 4.8 | 0.00 | 0.00 | 0.00 | 64 | 1016.3 |
| 20260505031404 | 12 | 314 | 3.2 | 4.8 | 0.00 | 0.00 | 0.00 | 64 | 1016.1 |
| 20260505031204 | 12 | 314 | 3.2 | 4.8 | 0.00 | 0.00 | 0.00 | 64 | 1016.2 |
| 20260505031005 | 12 | 314 | 3.2 | 4.8 | 0.00 | 0.00 | 0.00 | 64 | 1016.2 |
| 20260505030804 | 12 | 315 | 3.2 | 4.8 | 0.00 | 0.00 | 0.00 | 64 | 1016.0 |
| 20260505030604 | 12 | 314 | 3.2 | 4.8 | 0.00 | 0.00 | 0.00 | 64 | 1016.1 |
| 20260505030404 | 12 | 314 | 3.2 | 4.8 | 0.00 | 0.00 | 0.00 | 64 | 1016.3 |
| 20260505030204 | 13 | 314 | 3.2 | 4.8 | 0.00 | 0.00 | 0.00 | 64 | 1016.2 |
| 20260505025804 | 13 | 315 | 3.2 | 4.8 | 0.00 | 0.00 | 0.00 | 64 | 1016.2 |
| 20260505025604 | 13 | 315 | 3.2 | 4.8 | 0.00 | 0.00 | 0.00 | 64 | 1016.1 |
| 20260505025404 | 13 | 315 | 3.2 | 4.8 | 0.00 | 0.00 | 0.00 | 64 | 1016.1 |
| 20260505025204 | 13 | 315 | 3.2 | 4.8 | 0.00 | 0.00 | 0.00 | 64 | 1016.2 |
| 20260505025004 | 13 | 315 | 3.2 | 4.8 | 0.00 | 0.00 | 0.00 | 64 | 1016.2 |
| 20260505024605 | 13 | 315 | 3.2 | 4.8 | 0.00 | 0.00 | 0.00 | 64 | 1016.2 |
| 20260505024204 | 13 | 315 | 3.2 | 3.2 | 0.00 | 0.00 | 0.00 | 63 | 1016.1 |
| 20260505024004 | 13 | 314 | 3.2 | 3.2 | 0.00 | 0.00 | 0.00 | 63 | 1016.2 |
| 20260505023805 | 13 | 315 | 3.2 | 3.2 | 0.00 | 0.00 | 0.00 | 63 | 1016.2 |
| 20260505023604 | 13 | 314 | 3.2 | 3.2 | 0.00 | 0.00 | 0.00 | 63 | 1016.3 |
| 20260505023404 | 13 | 314 | 3.2 | 3.2 | 0.00 | 0.00 | 0.00 | 63 | 1016.2 |
| 20260505023204 | 13 | 315 | 3.2 | 3.2 | 0.00 | 0.00 | 0.00 | 63 | 1016.1 |
| 20260505023004 | 13 | 315 | 3.2 | 4.8 | 0.00 | 0.00 | 0.00 | 63 | 1016.0 |
| 20260505022404 | 13 | 307 | 4.8 | 4.8 | 0.00 | 0.00 | 0.00 | 64 | 1016.0 |
| 20260505022204 | 13 | 307 | 4.8 | 4.8 | 0.00 | 0.00 | 0.00 | 64 | 1016.1 |
| 20260505022005 | 13 | 307 | 4.8 | 4.8 | 0.00 | 0.00 | 0.00 | 64 | 1016.2 |
| 20260505021804 | 13 | 307 | 3.2 | 4.8 | 0.00 | 0.00 | 0.00 | 64 | 1016.0 |
| 20260505021604 | 13 | 314 | 3.2 | 4.8 | 0.00 | 0.00 | 0.00 | 63 | 1016.2 |
| 20260505021204 | 13 | 314 | 3.2 | 4.8 | 0.00 | 0.00 | 0.00 | 63 | 1016.1 |
| 20260505021004 | 13 | 314 | 3.2 | 4.8 | 0.00 | 0.00 | 0.00 | 63 | 1016.0 |
| 20260505020804 | 13 | 314 | 3.2 | 4.8 | 0.00 | 0.00 | 0.00 | 63 | 1016.1 |
| 20260505020604 | 13 | 314 | 3.2 | 4.8 | 0.00 | 0.00 | 0.00 | 63 | 1016.0 |
| 20260505020404 | 13 | 314 | 3.2 | 4.8 | 0.00 | 0.00 | 0.00 | 63 | 1015.9 |
| 20260505020004 | 13 | 315 | 3.2 | 4.8 | 0.00 | 0.00 | 0.00 | 62 | 1015.9 |
| 20260505015804 | 13 | 315 | 3.2 | 3.2 | 0.00 | 0.00 | 0.00 | 62 | 1015.9 |
| 20260505015604 | 13 | 314 | 3.2 | 4.8 | 0.00 | 0.00 | 0.00 | 62 | 1015.8 |
| 20260505015204 | 13 | 314 | 3.2 | 4.8 | 0.00 | 0.00 | 0.00 | 62 | 1015.8 |
| 20260505015005 | 13 | 314 | 3.2 | 4.8 | 0.00 | 0.00 | 0.00 | 62 | 1015.9 |
| 20260505014804 | 13 | 314 | 3.2 | 4.8 | 0.00 | 0.00 | 0.00 | 61 | 1015.9 |
| 20260505014604 | 14 | 306 | 3.2 | 4.8 | 0.00 | 0.00 | 0.00 | 61 | 1015.8 |
| 20260505014404 | 14 | 299 | 3.2 | 4.8 | 0.00 | 0.00 | 0.00 | 61 | 1015.8 |
| 20260505014204 | 14 | 299 | 3.2 | 4.8 | 0.00 | 0.00 | 0.00 | 61 | 1015.8 |
| 20260505014004 | 14 | 292 | 3.2 | 4.8 | 0.00 | 0.00 | 0.00 | 61 | 1015.8 |
| 20260505013804 | 14 | 294 | 4.8 | 4.8 | 0.00 | 0.00 | 0.00 | 61 | 1015.9 |
| 20260505013604 | 14 | 302 | 4.8 | 4.8 | 0.00 | 0.00 | 0.00 | 62 | 1015.9 |
| 20260505013405 | 14 | 307 | 3.2 | 4.8 | 0.00 | 0.00 | 0.00 | 61 | 1015.8 |
| 20260505013204 | 14 | 307 | 3.2 | 4.8 | 0.00 | 0.00 | 0.00 | 61 | 1015.6 |
| 20260505012804 | 14 | 315 | 3.2 | 4.8 | 0.00 | 0.00 | 0.00 | 61 | 1015.8 |
| 20260505012404 | 14 | 314 | 3.2 | 4.8 | 0.00 | 0.00 | 0.00 | 61 | 1015.6 |
| 20260505012204 | 15 | 315 | 3.2 | 4.8 | 0.00 | 0.00 | 0.00 | 60 | 1015.5 |
| 20260505011604 | 15 | 314 | 3.2 | 4.8 | 0.00 | 0.00 | 0.00 | 60 | 1015.5 |
| 20260505011004 | 15 | 314 | 1.6 | 4.8 | 0.00 | 0.00 | 0.00 | 59 | 1015.4 |
| 20260505010804 | 15 | 314 | 1.6 | 4.8 | 0.00 | 0.00 | 0.00 | 59 | 1015.6 |
| 20260505010404 | 16 | 0 | 0.0 | 0.0 | 0.00 | 0.00 | 0.00 | 58 | 1015.6 |
| 20260505010005 | 16 | 0 | 0.0 | 0.0 | 0.00 | 0.00 | 0.00 | 56 | 1015.6 |
| 20260505005804 | 16 | 0 | 0.0 | 0.0 | 0.00 | 0.00 | 0.00 | 55 | 1015.6 |
| 20260505005604 | 16 | 0 | 0.0 | 0.0 | 0.00 | 0.00 | 0.00 | 51 | 1015.5 |
| 20260505005404 | 16 | 0 | 0.0 | 0.0 | 0.00 | 0.00 | 0.00 | 51 | 1015.6 |
| 20260505005204 | 16 | 0 | 0.0 | 0.0 | 0.00 | 0.00 | 0.00 | 51 | 1015.5 |
| 20260505005004 | 16 | 0 | 0.0 | 0.0 | 0.00 | 0.00 | 0.00 | 51 | 1015.5 |
| 20260505004804 | 16 | 0 | 0.0 | 0.0 | 0.00 | 0.00 | 0.00 | 51 | 1015.6 |
| 20260505004604 | 17 | 0 | 0.0 | 0.0 | 0.00 | 0.00 | 0.00 | 50 | 1015.6 |
| 20260505004405 | 17 | 314 | 0.0 | 3.2 | 0.00 | 0.00 | 0.00 | 50 | 1015.5 |
| 20260505004005 | 17 | 314 | 1.6 | 3.2 | 0.00 | 0.00 | 0.00 | 49 | 1015.5 |
| 20260505003804 | 17 | 320 | 1.6 | 3.2 | 0.00 | 0.00 | 0.00 | 49 | 1015.4 |
| 20260505003604 | 17 | 320 | 1.6 | 4.8 | 0.00 | 0.00 | 0.00 | 48 | 1015.4 |
| 20260505003404 | 17 | 315 | 1.6 | 4.8 | 0.00 | 0.00 | 0.00 | 47 | 1015.5 |
| 20260505003204 | 17 | 300 | 3.2 | 4.8 | 0.00 | 0.00 | 0.00 | 47 | 1015.4 |
| 20260505003004 | 17 | 298 | 3.2 | 4.8 | 0.00 | 0.00 | 0.00 | 47 | 1015.3 |
| 20260505002604 | 17 | 284 | 4.8 | 8.0 | 0.00 | 0.00 | 0.00 | 46 | 1015.3 |
| 20260505002405 | 17 | 281 | 4.8 | 8.0 | 0.00 | 0.00 | 0.00 | 46 | 1015.5 |
| 20260505002005 | 18 | 277 | 4.8 | 8.0 | 0.00 | 0.00 | 0.00 | 45 | 1015.4 |
| 20260505001804 | 18 | 275 | 4.8 | 8.0 | 0.00 | 0.00 | 0.00 | 45 | 1015.4 |
| 20260505001604 | 18 | 275 | 4.8 | 8.0 | 0.00 | 0.00 | 0.00 | 45 | 1015.3 |
| 20260505001204 | 18 | 271 | 6.4 | 8.0 | 0.00 | 0.00 | 0.00 | 44 | 1015.3 |
| 20260505001004 | 18 | 277 | 4.8 | 8.0 | 0.00 | 0.00 | 0.00 | 44 | 1015.3 |
| 20260505000805 | 18 | 280 | 4.8 | 8.0 | 0.00 | 0.00 | 0.00 | 44 | 1015.3 |
| 20260505000604 | 18 | 287 | 4.8 | 8.0 | 0.00 | 0.00 | 0.00 | 44 | 1015.4 |
| 20260505000406 | 18 | 288 | 6.4 | 9.7 | 0.00 | 0.00 | 0.00 | 44 | 1015.3 |
| 20260504235804 | 18 | 278 | 4.8 | 9.7 | 0.00 | 0.00 | 0.00 | 43 | 1015.4 |
| 20260504235604 | 18 | 271 | 4.8 | 11.3 | 0.00 | 0.00 | 0.00 | 43 | 1015.5 |
| 20260504235404 | 18 | 267 | 4.8 | 11.3 | 0.00 | 0.00 | 0.00 | 43 | 1015.4 |
| 20260504235204 | 18 | 263 | 6.4 | 11.3 | 0.00 | 0.00 | 0.00 | 43 | 1015.3 |
| 20260504235004 | 18 | 264 | 8.0 | 12.9 | 0.00 | 0.00 | 0.00 | 42 | 1015.3 |
| 20260504234804 | 18 | 265 | 8.0 | 12.9 | 0.00 | 0.00 | 0.00 | 42 | 1015.3 |
| 20260504234204 | 18 | 270 | 8.0 | 12.9 | 0.00 | 0.00 | 0.00 | 42 | 1015.4 |
| 20260504233804 | 19 | 277 | 8.0 | 12.9 | 0.00 | 0.00 | 0.00 | 42 | 1015.3 |
| 20260504233404 | 19 | 281 | 8.0 | 12.9 | 0.00 | 0.00 | 0.00 | 41 | 1015.3 |
| 20260504233204 | 19 | 283 | 8.0 | 12.9 | 0.00 | 0.00 | 0.00 | 41 | 1015.3 |
| 20260504233004 | 19 | 279 | 8.0 | 12.9 | 0.00 | 0.00 | 0.00 | 41 | 1015.3 |
| 20260504232804 | 19 | 276 | 8.0 | 12.9 | 0.00 | 0.00 | 0.00 | 41 | 1015.3 |
| 20260504232404 | 20 | 269 | 8.0 | 11.3 | 0.00 | 0.00 | 0.00 | 41 | 1015.2 |
| 20260504232203 | 20 | 267 | 6.4 | 11.3 | 0.00 | 0.00 | 0.00 | 41 | 1015.4 |
| 20260504231604 | 20 | 270 | 6.4 | 11.3 | 0.00 | 0.00 | 0.00 | 41 | 1015.3 |
| 20260504231204 | 20 | 260 | 6.4 | 11.3 | 0.00 | 0.00 | 0.00 | 41 | 1015.3 |
| 20260504231004 | 20 | 264 | 6.4 | 11.3 | 0.00 | 0.00 | 0.00 | 41 | 1015.2 |
| 20260504230804 | 20 | 252 | 6.4 | 11.3 | 0.00 | 0.00 | 0.00 | 41 | 1015.3 |
| 20260504230404 | 20 | 257 | 6.4 | 11.3 | 0.00 | 0.00 | 0.00 | 41 | 1015.1 |
| 20260504230204 | 20 | 259 | 6.4 | 11.3 | 0.00 | 0.00 | 0.00 | 40 | 1015.1 |
| 20260504230005 | 20 | 245 | 8.0 | 11.3 | 0.00 | 0.00 | 0.00 | 40 | 1015.1 |
| 20260504225804 | 20 | 252 | 8.0 | 11.3 | 0.00 | 0.00 | 0.00 | 40 | 1015.0 |
| 20260504225404 | 20 | 230 | 6.4 | 11.3 | 0.00 | 0.00 | 0.00 | 40 | 1015.1 |
| 20260504224803 | 20 | 236 | 6.4 | 11.3 | 0.00 | 0.00 | 0.00 | 36 | 1015.0 |
| 20260504224604 | 20 | 247 | 6.4 | 11.3 | 0.00 | 0.00 | 0.00 | 36 | 1015.1 |
| 20260504224404 | 20 | 267 | 8.0 | 12.9 | 0.00 | 0.00 | 0.00 | 35 | 1015.3 |
| 20260504224204 | 20 | 274 | 8.0 | 12.9 | 0.00 | 0.00 | 0.00 | 34 | 1015.1 |
| 20260504224004 | 20 | 273 | 9.7 | 12.9 | 0.00 | 0.00 | 0.00 | 34 | 1015.3 |
| 20260504223805 | 20 | 271 | 9.7 | 12.9 | 0.00 | 0.00 | 0.00 | 33 | 1015.2 |
| 20260504223604 | 20 | 272 | 9.7 | 12.9 | 0.00 | 0.00 | 0.00 | 33 | 1015.3 |
| 20260504222404 | 21 | 267 | 9.7 | 17.7 | 0.00 | 0.00 | 0.00 | 30 | 1015.4 |
| 20260504222204 | 21 | 269 | 9.7 | 17.7 | 0.00 | 0.00 | 0.00 | 30 | 1015.4 |
| 20260504222004 | 21 | 269 | 11.3 | 17.7 | 0.00 | 0.00 | 0.00 | 30 | 1015.3 |
| 20260504221604 | 21 | 281 | 11.3 | 16.1 | 0.00 | 0.00 | 0.00 | 30 | 1015.3 |
| 20260504221403 | 21 | 285 | 11.3 | 16.1 | 0.00 | 0.00 | 0.00 | 30 | 1015.3 |
| 20260504221204 | 21 | 283 | 9.7 | 16.1 | 0.00 | 0.00 | 0.00 | 27 | 1015.4 |
| 20260504221004 | 21 | 277 | 9.7 | 16.1 | 0.00 | 0.00 | 0.00 | 28 | 1015.3 |
| 20260504220604 | 21 | 263 | 8.0 | 12.9 | 0.00 | 0.00 | 0.00 | 30 | 1015.3 |
| 20260504220204 | 21 | 259 | 8.0 | 14.5 | 0.00 | 0.00 | 0.00 | 30 | 1015.3 |
| 20260504220004 | 21 | 258 | 8.0 | 14.5 | 0.00 | 0.00 | 0.00 | 30 | 1015.1 |
| 20260504215804 | 21 | 258 | 8.0 | 14.5 | 0.00 | 0.00 | 0.00 | 30 | 1015.4 |
| 20260504215604 | 21 | 250 | 8.0 | 14.5 | 0.00 | 0.00 | 0.00 | 30 | 1015.2 |
| 20260504215404 | 21 | 251 | 9.7 | 14.5 | 0.00 | 0.00 | 0.00 | 27 | 1015.4 |
| 20260504215204 | 21 | 252 | 8.0 | 12.9 | 0.00 | 0.00 | 0.00 | 27 | 1015.4 |
| 20260504215004 | 21 | 267 | 9.7 | 12.9 | 0.00 | 0.00 | 0.00 | 28 | 1015.2 |
| 20260504214804 | 21 | 276 | 9.7 | 12.9 | 0.00 | 0.00 | 0.00 | 29 | 1015.2 |
| 20260504214604 | 21 | 288 | 8.0 | 12.9 | 0.00 | 0.00 | 0.00 | 30 | 1015.3 |
| 20260504214403 | 21 | 292 | 8.0 | 12.9 | 0.00 | 0.00 | 0.00 | 30 | 1015.3 |
| 20260504214204 | 21 | 294 | 8.0 | 12.9 | 0.00 | 0.00 | 0.00 | 30 | 1015.3 |
| 20260504214005 | 21 | 285 | 8.0 | 14.5 | 0.00 | 0.00 | 0.00 | 31 | 1015.2 |
| 20260504213804 | 21 | 276 | 8.0 | 14.5 | 0.00 | 0.00 | 0.00 | 31 | 1015.1 |
| 20260504213604 | 21 | 273 | 9.7 | 14.5 | 0.00 | 0.00 | 0.00 | 31 | 1015.2 |
| 20260504213404 | 21 | 271 | 9.7 | 14.5 | 0.00 | 0.00 | 0.00 | 31 | 1015.1 |
| 20260504213204 | 21 | 275 | 9.7 | 14.5 | 0.00 | 0.00 | 0.00 | 31 | 1015.2 |
| 20260504213004 | 22 | 270 | 9.7 | 14.5 | 0.00 | 0.00 | 0.00 | 31 | 1015.1 |
| 20260504212804 | 22 | 268 | 9.7 | 14.5 | 0.00 | 0.00 | 0.00 | 31 | 1015.2 |
| 20260504212604 | 22 | 267 | 9.7 | 14.5 | 0.00 | 0.00 | 0.00 | 31 | 1015.1 |
| 20260504212204 | 22 | 259 | 9.7 | 14.5 | 0.00 | 0.00 | 0.00 | 30 | 1015.2 |
| 20260504212005 | 22 | 258 | 9.7 | 14.5 | 0.00 | 0.00 | 0.00 | 30 | 1015.3 |
| 20260504211804 | 22 | 257 | 8.0 | 14.5 | 0.00 | 0.00 | 0.00 | 30 | 1015.3 |
| 20260504211604 | 22 | 264 | 8.0 | 14.5 | 0.00 | 0.00 | 0.00 | 29 | 1015.3 |
| 20260504211404 | 22 | 264 | 8.0 | 14.5 | 0.00 | 0.00 | 0.00 | 30 | 1015.1 |
| 20260504211204 | 22 | 256 | 6.4 | 11.3 | 0.00 | 0.00 | 0.00 | 30 | 1015.2 |
| 20260504211004 | 22 | 247 | 6.4 | 11.3 | 0.00 | 0.00 | 0.00 | 29 | 1015.2 |
| 20260504210805 | 22 | 234 | 6.4 | 11.3 | 0.00 | 0.00 | 0.00 | 28 | 1015.3 |
| 20260504210604 | 23 | 206 | 6.4 | 9.7 | 0.00 | 0.00 | 0.00 | 27 | 1015.2 |
| 20260504210405 | 23 | 197 | 6.4 | 9.7 | 0.00 | 0.00 | 0.00 | 26 | 1015.2 |
| 20260504210005 | 23 | 225 | 6.4 | 11.3 | 0.00 | 0.00 | 0.00 | 25 | 1015.2 |
| 20260504205804 | 23 | 237 | 6.4 | 11.3 | 0.00 | 0.00 | 0.00 | 25 | 1015.3 |
| 20260504205604 | 23 | 244 | 6.4 | 11.3 | 0.00 | 0.00 | 0.00 | 25 | 1015.3 |
| 20260504205404 | 23 | 251 | 6.4 | 11.3 | 0.00 | 0.00 | 0.00 | 25 | 1015.3 |
| 20260504205004 | 23 | 243 | 6.4 | 11.3 | 0.00 | 0.00 | 0.00 | 25 | 1015.3 |
| 20260504204803 | 23 | 230 | 6.4 | 11.3 | 0.00 | 0.00 | 0.00 | 24 | 1015.3 |
| 20260504204404 | 23 | 209 | 6.4 | 16.1 | 0.00 | 0.00 | 0.00 | 23 | 1015.4 |
| 20260504204204 | 23 | 218 | 6.4 | 16.1 | 0.00 | 0.00 | 0.00 | 23 | 1015.4 |
| 20260504204004 | 23 | 245 | 6.4 | 16.1 | 0.00 | 0.00 | 0.00 | 24 | 1015.4 |
| 20260504203805 | 23 | 284 | 6.4 | 16.1 | 0.00 | 0.00 | 0.00 | 24 | 1015.4 |
| 20260504203604 | 23 | 293 | 6.4 | 16.1 | 0.00 | 0.00 | 0.00 | 25 | 1015.6 |
| 20260504203404 | 24 | 303 | 6.4 | 11.3 | 0.00 | 0.00 | 0.00 | 25 | 1015.5 |
| 20260504203204 | 24 | 281 | 6.4 | 11.3 | 0.00 | 0.00 | 0.00 | 25 | 1015.6 |
| 20260504203005 | 24 | 255 | 6.4 | 11.3 | 0.00 | 0.00 | 0.00 | 24 | 1015.6 |
| 20260504202804 | 24 | 228 | 6.4 | 11.3 | 0.00 | 0.00 | 0.00 | 26 | 1015.5 |
| 20260504202604 | 24 | 232 | 6.4 | 11.3 | 0.00 | 0.00 | 0.00 | 29 | 1015.6 |
| 20260504202404 | 24 | 237 | 6.4 | 11.3 | 0.00 | 0.00 | 0.00 | 28 | 1015.6 |
| 20260504202203 | 24 | 247 | 6.4 | 12.9 | 0.00 | 0.00 | 0.00 | 29 | 1015.8 |
| 20260504202004 | 24 | 252 | 6.4 | 12.9 | 0.00 | 0.00 | 0.00 | 30 | 1015.6 |
| 20260504201804 | 23 | 262 | 8.0 | 16.1 | 0.00 | 0.00 | 0.00 | 30 | 1015.7 |
| 20260504201604 | 23 | 268 | 9.7 | 16.1 | 0.00 | 0.00 | 0.00 | 30 | 1015.6 |
| 20260504201405 | 23 | 270 | 9.7 | 16.1 | 0.00 | 0.00 | 0.00 | 30 | 1015.4 |
| 20260504201005 | 24 | 253 | 9.7 | 16.1 | 0.00 | 0.00 | 0.00 | 30 | 1015.4 |
| 20260504200804 | 25 | 233 | 9.7 | 16.1 | 0.00 | 0.00 | 0.00 | 28 | 1015.8 |
| 20260504200404 | 25 | 231 | 9.7 | 12.9 | 0.00 | 0.00 | 0.00 | 30 | 1015.6 |
| 20260504200004 | 25 | 239 | 8.0 | 14.5 | 0.00 | 0.00 | 0.00 | 26 | 1015.8 |
| 20260504195804 | 25 | 245 | 8.0 | 14.5 | 0.00 | 0.00 | 0.00 | 25 | 1016.0 |
| 20260504195604 | 26 | 234 | 6.4 | 14.5 | 0.00 | 0.00 | 0.00 | 26 | 1015.6 |
| 20260504195403 | 26 | 238 | 6.4 | 14.5 | 0.00 | 0.00 | 0.00 | 28 | 1016.0 |
| 20260504195204 | 26 | 237 | 6.4 | 14.5 | 0.00 | 0.00 | 0.00 | 29 | 1015.9 |